EW3016 Weather Reports


Display with metric or nautical units.
time (UTC)temp
F
wind
direction
speed
MPH
gust
MPH
rain 1hr
in
rain 24hr
in
rain mn
in
humidity
%
barometer
mb
20260904213017 75 270 2.0 9.0 0.00 0.17 0.17 61 1013.5
20260904210016 74 270 3.0 13.0 0.00 0.17 0.17 62 1013.4
20260904203036 76 293 3.0 12.0 0.00 0.17 0.17 63 1013.8
20260904200016 76 293 4.0 12.0 0.00 0.17 0.17 62 1014.1
20260904193016 77 293 3.0 11.0 0.00 0.17 0.17 65 1014.0
20260904190016 75 270 3.0 11.0 0.00 0.17 0.17 67 1014.2
20260904183018 76 270 4.0 13.0 0.00 0.17 0.17 64 1014.4
20260904180016 74 293 2.0 10.0 0.00 0.17 0.17 72 1014.6
20260904173016 74 270 1.0 10.0 0.00 0.17 0.17 70 1014.8
20260904170017 74 293 1.0 9.0 0.00 0.17 0.17 68 1014.9
20260904163016 73 270 1.0 10.0 0.00 0.17 0.17 76 1014.9
20260904160016 73 0.0 9.0 0.00 0.17 0.17 76 1014.9
20260904153016 71 0.0 5.0 0.00 0.17 0.17 77 1015.1
20260904150016 70 0.0 3.0 0.00 0.17 0.17 83 1015.2
20260904143016 68 270 1.0 10.0 0.00 0.17 0.17 87 1015.2
20260904140016 68 293 1.0 7.0 0.00 0.17 0.17 88 1015.1
20260904133016 66 0.0 7.0 0.00 0.17 0.17 93 1014.9
20260904130036 66 0.0 4.0 0.00 0.17 0.17 97 1014.9
20260904123016 65 0.0 3.0 0.00 0.17 0.17 97 1014.8
20260904120016 65 0.0 0.0 0.00 0.17 0.17 97 1014.7
20260904113015 65 0.0 0.0 0.00 0.17 0.17 97 1014.7
20260904110015 65 0.0 0.0 0.01 0.17 0.17 97 1014.5
20260904103016 66 0.0 0.0 0.01 0.17 0.17 97 1014.3
20260904100015 66 0.0 0.0 0.00 0.16 0.16 97 1014.2
20260904093015 66 0.0 0.0 0.00 0.16 0.16 97 1014.1
20260904090059 65 0.0 0.0 0.00 0.16 0.16 96 1014.3
20260904083017 66 0.0 0.0 0.00 0.18 0.16 96 1013.9
20260904080018 66 0.0 0.0 0.00 0.21 0.16 96 1013.4
20260904073037 66 0.0 0.0 0.00 0.22 0.16 96 1013.7
20260904070017 67 0.0 0.0 0.00 0.23 0.16 95 1013.7
20260904063017 67 0.0 0.0 0.00 0.36 0.16 95 1013.2
20260904060017 68 0.0 0.0 0.09 0.39 0.16 95 1014.0
20260904053037 68 0.0 0.0 0.15 0.42 0.16 96 1014.6
20260904050017 68 0.0 0.0 0.07 0.33 0.07 95 1014.6
20260904043017 69 0.0 0.0 0.01 0.31 0.01 94 1014.2
20260904040018 69 0.0 0.0 0.00 0.31 0.31 94 1014.2
20260904033016 69 0.0 0.0 0.00 0.35 0.31 94 1014.1
20260904030037 69 0.0 0.0 0.00 0.44 0.31 93 1014.1
20260904023037 70 0.0 0.0 0.00 0.70 0.31 93 1014.4
20260904020017 70 0.0 0.0 0.00 1.30 0.31 92 1014.8
20260904013119 71 0.0 0.0 0.00 1.32 0.31 93 1015.0
20260904010017 71 0.0 0.0 0.00 1.32 0.31 92 1014.9
20260904003017 72 0.0 0.0 0.00 1.32 0.31 89 1014.7
20260904000016 72 0.0 0.0 0.00 1.32 0.31 87 1014.5
20260903233017 74 0.0 0.0 0.00 1.32 0.31 84 1014.9
20260903230017 75 0.0 0.0 0.00 1.32 0.31 82 1014.3
20260903223016 76 0.0 0.0 0.00 1.32 0.31 82 1014.7
20260903220016 77 0.0 0.0 0.00 1.32 0.31 81 1014.6